COSMOS 1199

Satellite information

Favourite Embed

Satellite Type and Status

PAYLOADIN ORBIT

Key statistics

Satellite COSMOS 1199 at a glance.

Uptime

16599

Days in orbit

Revolutions

≈ 12.4

Per day

Orbit

LEO

Low Earth Orbit

Inclination

74.0

Latest

Satellite identification and parameters

Extended collection of information and parameters for COSMOS 1199.

Object identification

Identified? True

Debris? False

Object name: COSMOS 1199

International designator: 1980-058H

Object number (NORAD): 11882

Object ID (CCSDS): 11882

Country: COMMONWEALTH OF INDEPENDENT STATES (CIS)

Current information (Y/N): Y

RCS size: MEDIUM

Orbital parameters

Period: 116.016 minutes

Inclination: 74.0155 deg

SMA: 7879.642 km

Apoapsis: 1530.642 km

Periapsis: 1472.372 km

RAAN: 197.0286 deg

Eccentricy: 0.00369751

Argument of periapsis: 221.5631 deg

Mean anomaly: 245.2515 deg

Mean motion: 12.41203643 rev/day

Mean motion (dot): 0.00000006 rev/day2

B* drag term: 0.00015618861 1/REarth

Two-line elements (TLE)

Creation date: Dec. 19, 2025, 2:08 a.m.

Reference frame: TEME

Reference center: EARTH

Epoch: Dec. 18, 2025, 9:44 p.m. UTC

TLE line 0: 0 COSMOS 1199

TLE line 1: 1 11882U 80058H 25352.90574943 .00000006 00000-0 15619-3 0 9990

TLE line 2: 2 11882 74.0155 197.0286 0036975 221.5631 245.2515 12.41203643 59067

Live tracking on map

Real-time ground track for satellite COSMOS 1199.

In-orbit conjunctions

There are no conjunctions computed for COSMOS 1199, at the moment. Check back to stay up to date, as we update our databases every day.

Go to all conjunctions

Associated space launch

Optical film-return reconnaissance satellite

COSMOS 1199 was lifted into orbit during the mission ‘Soyuz U | Zenit-6U 22’, on board a Soyuz U space rocket.

The launch took place on July 9, 1980, 12:40 p.m. from 41/1.

For more information about the launch, click the button.

Launch to space Soyuz U | Zenit-6U 22
Soyuz U | Zenit-6U 22

Agency: N/A

Status: Launch Successful

Launch date: July 9, 1980, 12:40 p.m. UTC

Rocket: Soyuz U

Launch pad: 41/1

Location: Plesetsk Cosmodrome, Russian Federation

...

Latest news about this satellite

There are no fresh news available about this satellite. Check back as we update our databases every day.


Newsletter sign-up

Weekly statistics, charts and insights to help you stay on top of the space industry.